Volver al catálogo

STARLINK-31704

ActivoComunicacionesVLEO
NORAD 59586·PAYLOAD·🇺🇸 United States

Lanzado Apr 23, 2024 desde Cape Canaveral Space Force Station

Loading…

Próximos Pases (próximas 24 horas)

TLE

ActualizadoSource: CelesTrak SupGP

Época: Sep 15, 2026, 03:39 UTC

1 59586C 24076Y   26258.15256944  .00085425  00000+0  63433-3 0  2584
2 59586  42.9810 297.2260 0026636  68.7828 279.1711 15.71348124    14

Sigue STARLINK-31704 en tiempo real con AllMySat

Download on the App Store